AirNav   Air Wisconsin pilot careers
 
 455 users online  

VT32 Bobby Heliport
Brookline, Vermont, USA

GOING TO BROOKLINE?


FAA INFORMATION EFFECTIVE 01 FEBRUARY 2018

Location

FAA Identifier: VT32
Lat/Long: 42-59-20.2890N / 072-37-41.3300W
42-59.338150N / 072-37.688833W
42.9889692 / -72.6281472
(estimated)
Elevation: 420 ft. / 128 m (estimated)
Variation: 15W (1985)
From city: 3 miles SE of BROOKLINE, VT
Time zone: UTC -5 (UTC -4 during Daylight Saving Time)
Zip code: 05345

Heliport Operations

Heliport use: Private use, PERSONAL USE.
Activation date: 07/1990
Control tower: no
ARTCC: BOSTON CENTER
FSS: BURLINGTON FLIGHT SERVICE STATION
Attendance: UNATNDD
Segmented circle: no

Heliport Communications

WX AWOS-3PT at EEN (17 nm E): 119.025 (603-358-6424)

Nearby radio navigation aids

VOR radial/distance  VOR name  Freq  Var
EENr322/18.8KEENE VORTAC109.4014W
CAMr105/31.4CAMBRIDGE VOR/DME115.0014W
RUTr171/35.2RUTLAND VOR/DME111.0015W
GDMr331/36.6GARDNER VOR/DME110.6014W

 
NDB name  Hdg/Dist  Freq  Var  ID
CLAREMONT222/25.423316WCNH -.-. -. ....

Heliport Services

Runway Information

Helipad H1

Dimensions: 75 x 50 ft. / 23 x 15 m
Surface: turf
Traffic pattern: leftleft

Heliport Ownership and Management from official FAA records

Ownership: Privately-owned
Owner: HERBERT D HOWE
125 WHITE OAK RUN
DARTMOUTH, MA 02747
Phone 508-636-4376
Manager: HERBERT D HOWE
125 WHITE OAK RUN
DARTMOUTH, MA 02747
Phone 508-636-4376

Heliport Operational Statistics

Aircraft based on the field: 1
Helicopters: 1
    

Instrument Procedures

There are no published instrument procedures at VT32.

Some nearby airports with instrument procedures:

4V8 - Deerfield Valley Regional Airport (11 nm W)
KEEN - Dillant-Hopkins Airport (17 nm E)
KVSF - Hartness State Airport (Springfield) (22 nm N)
0B5 - Turners Falls Airport (24 nm S)
KCNH - Claremont Municipal Airport (26 nm NE)
 
Loc | Ops | Rwys | IFR | FBO | Links
Com | Nav | Svcs | Stats | Notes

AirNav Hotels Sweepstakes
 
Area around VT32 (Bobby Heliport)
 
Road maps at: MapQuest Bing Google
 
Aerial photo
No photo
 
Sectional chart

 
Airport distance calculator
Flying to Bobby Heliport? Find the distance to fly.

From to VT32

Sunrise and sunset
Times for 22-Feb-2018
 Local
(UTC-5)
 Zulu
(UTC)
Morning civil twilight06:1011:10
Sunrise06:3911:39
Sunset17:2922:29
Evening civil twilight17:5822:58

Current date and time
Zulu (UTC)  22-Feb-2018 11:25:09
Local (UTC-5)  22-Feb-2018 06:25:09
 
METAR
KEEN 
17nm E 
221056Z AUTO 01010KT 10SM OVC085 02/M07 A3060 RMK AO2 SLP387 T00221067 FZRANO
KVSF 
22nm N 
221054Z AUTO 03004KT 10SM OVC095 01/M08 A3060 RMK AO2 SLP369 T00111078
KDDH 
28nm W 
221054Z AUTO 33003KT 10SM OVC085 02/M04 A3057 RMK AO2 SLP357 T00221044
KAQW 
29nm SW 
221052Z AUTO 31005KT 10SM OVC080 03/M03 A3057 RMK AO2 SLP357 T00281033
KORE 
30nm SE 
221052Z AUTO 02008KT 10SM OVC080 03/M04 A3059 RMK AO2 SLP363 T00331044 $
KAFN 
30nm E 
221052Z AUTO 00000KT 10SM OVC080 02/M07 A3057 RMK AO2 SLP361 T00221072
TAF
KRUT 
35nm NW 
220520Z 2206/2306 33009KT P6SM OVC080 FM221700 VRB03KT P6SM VCSH OVC050 FM230000 00000KT P6SM BKN150
KLEB 
41nm N 
220937Z 2210/2306 36003KT P6SM BKN080 PROB30 2219/2222 4SM -SHSN BR OVC025 FM222300 00000KT P6SM SCT200
NOTAMs
Click for the latest NOTAMs
NOTAMs are issued by the DoD/FAA and will open in a separate window not controlled by AirNav.

 

 
 

Would you like to see your business listed on this page?

 If your business provides an interesting product or service to pilots, flight crews, aircraft, or users of the Bobby Heliport, you should consider listing it here.  To start the listing process, click on the button below
 
Add a business
 

Other Pages about Bobby Heliport

Update a link
 
Copyright © AirNav, LLC. All rights reserved. Privacy Policy  Contact